Tracking 17844 objects as of 25-August-2016
HD Live streaming from Space Station
objects crossing your sky now

MAQSAT H

Track MAQSAT H now!
10-day predictions
MAQSAT H is classified as:


NORAD ID: 25023
Int'l Code: 1997-066A
Perigee: 584.1 km
Apogee: 26,415.0 km
Inclination: 7.7 °
Period: 464.6 minutes
Semi major axis: 19870 km
RCS: 21.0323 m2 (large)
Launch date: October 30, 1997
Source: European Space Agency (ESA)
Launch site: FRENCH GUIANA (FRGUI)
Your satellite tracking list
Your tracking list is empty





NASA's NSSDC Master Catalog

Two Line Element Set (TLE):
1 25023U 97066A   16238.22664383 -.00000079  00000-0  36116-3 0  9991
2 25023   7.6913 183.1429 6499809 168.5885 355.6811  3.09947440212750
Source of the keplerian elements: AFSPC

N2YO: 768